Home > Weather > Inuvik > Past weeks

Flag for Canada Past Weather in Inuvik, Northwest Territories, Canada — Yesterday and Last 2 Weeks

Now
54 °F

Passing clouds.


Feels Like: 52 °F
Forecast: 53 / 76 °F
Wind: 7 mph from Southeast

Location: Inuvik

Current Time: Jul 27, 2016 at 5:34:35 AM

Latest Report: Jul 27, 2016 at 5:00 AM


Visibility: 15 mi

Pressure: 29.89 "Hg

Humidity: 72%

Dew Point: 45 °F

Location of InuvikLocation

Past Weather in Inuvik — Graph

°F

Inuvik Temperature Yesterday

Maximum temperature yesterday: 64 °F (at 5:00 PM)
Minimum temperature yesterday: 39 °F (at 4:00 AM)
Average temperature yesterday: 53 °F

High & Low Weather Summary for the Past Weeks

 TemperatureHumidityPressure
High86 °F (Jul 15, 5:00 PM)100% (Jul 12, 4:00 AM)30.22 "Hg (Jul 12, 4:00 AM)
Low32 °F (Jul 20, 7:54 AM)27% (Jul 15, 5:00 PM)29.72 "Hg (Jul 18, 3:00 PM)
Average52 °F77%29.96 "Hg
* Reported Jul 12 4:00 AM — Jul 27 4:00 AM, Inuvik, Weather by CustomWeather, © 2016

Note: Actual official high and low records may vary slightly from our data, if they occured in-between our weather recording intervals... More about our weather records

Advertising

Inuvik Weather History for the Previous 24 Hours

Scroll right to see more
 ConditionsComfort  
Time TempWeatherWind HumidityBarometerVisibility
4:00 AM
Wed, Jul 27
54 °FPartly sunny.6 mph67%29.89 "Hg15 mi
3:00 AM55 °FPartly sunny.9 mph63%29.89 "Hg15 mi
2:00 AM55 °FPartly sunny.7 mph63%29.89 "Hg15 mi
1:00 AM57 °FPartly sunny.7 mph59%29.88 "Hg15 mi
12:00 AM59 °FPartly sunny.7 mph59%29.88 "Hg15 mi
11:00 PM
Tue, Jul 26
61 °FPartly sunny.9 mph52%29.88 "Hg15 mi
10:00 PM64 °FPartly sunny.12 mph46%29.88 "Hg15 mi
9:00 PM64 °FPartly sunny.10 mph43%29.89 "Hg15 mi
8:00 PM64 °FPartly sunny.15 mph43%29.89 "Hg15 mi
7:00 PM64 °FPartly sunny.15 mph43%29.89 "Hg15 mi
6:00 PM64 °FPartly sunny.10 mph46%29.90 "Hg15 mi
5:00 PM64 °FPartly sunny.12 mph43%29.91 "Hg15 mi
4:00 PM63 °FPartly sunny.15 mph42%29.92 "Hg15 mi
3:00 PM63 °FPartly sunny.15 mph42%29.93 "Hg15 mi
2:00 PM61 °FPartly sunny.16 mph45%29.93 "Hg15 mi
1:00 PM59 °FScattered clouds.16 mph51%29.95 "Hg15 mi
12:00 PM57 °FPassing clouds.10 mph55%29.96 "Hg15 mi
11:00 AM54 °FPassing clouds.7 mph58%29.96 "Hg15 mi
10:00 AM52 °FPassing clouds.3 mph58%29.97 "Hg15 mi
9:00 AM48 °FSunny.3 mph71%29.98 "Hg15 mi
8:00 AM43 °FPassing clouds.7 mph81%29.98 "Hg15 mi
7:00 AM41 °FSunny.5 mph87%29.99 "Hg15 mi
6:00 AM39 °FClear.5 mph93%29.99 "Hg15 mi
5:00 AM39 °FClear.5 mph93%29.99 "Hg15 mi
Weather by CustomWeather, © 2016

See weather overviewHow to use our weather pages